FW0800 Weather Reports


time (UTC)temp
F
wind
direction
speed
knots
gust
knots
rain 1hr
in
rain 24hr
in
rain mn
in
humidity
%
barometer
mb
20260504045610 47 227 1.7 5.2 0.00 0.00 0.00 65 1002.8
20260504042608 47 235 0.9 2.6 0.00 0.00 0.00 68 1003.5
20260504035609 49 236 0.0 0.9 0.00 0.00 0.00 63 1004.4
20260504032608 51 236 0.0 0.9 0.00 0.00 0.00 58 1005.0
20260504025609 54 236 0.0 0.9 0.00 0.00 0.00 51 1005.4
20260504022608 58 236 0.0 0.0 0.00 0.00 0.00 43 1005.8
20260504012607 65 244 0.9 6.1 0.00 0.00 0.00 30 1006.0
20260504005607 67 271 2.6 7.0 0.00 0.00 0.00 28 1006.0
20260504002604 69 236 1.7 7.0 0.00 0.00 0.00 26 1006.0
20260503225604 73 249 3.5 10.4 0.00 0.00 0.00 24 1006.8
20260503222605 73 342 3.5 11.3 0.00 0.00 0.00 24 1006.9
20260503215604 73 282 5.2 11.3 0.00 0.00 0.00 22 1007.2
20260503212602 74 340 3.5 9.6 0.00 0.00 0.00 22 1007.4
20260503205602 73 32 3.5 11.3 0.00 0.00 0.00 22 1007.6
20260503202602 72 298 3.5 8.7 0.00 0.00 0.00 24 1008.1
20260503195601 71 334 5.2 13.0 0.00 0.00 0.00 23 1008.4
20260503192602 70 347 4.3 14.8 0.00 0.00 0.00 23 1008.5
20260503185601 71 355 3.5 11.3 0.00 0.00 0.00 24 1009.1
20260503182600 70 38 5.2 15.6 0.00 0.00 0.00 25 1009.2
20260503175600 69 340 5.2 12.2 0.00 0.00 0.00 28 1009.5
20260503172559 68 313 5.2 11.3 0.00 0.00 0.00 26 1009.5
20260503072533 52 232 0.9 4.3 0.00 0.00 0.00 62 1007.3